User: anonymous   Login
Location: B�retswil
(47.3376°N, 8.8534°E)
Time: 21:35:03
(UTC+00:00)
Language:

FALCON 9 DEB - Orbit

View from above orbital plane
View from above orbital plane
View from above satellite
View from above satellite

Ground track
Ground track

The orbit data is extracted from the following two-line orbital elements,

1 46087U 20055BN  21135.14974940  .00014865  00000-0  15197-3 0  9997
2 46087  53.0074 358.7279 0012823 115.7420 244.4919 15.65222009 48482
Epoch (UTC): 15 May 2021 03:35:38
Eccentricity: 0.0012823
inclination: 53.0074°
perigee height: 364 km
apogee height: 381 km
right ascension of ascending node: 358.7279°
argument of perigee: 115.7420°
revolutions per day: 15.65222009
mean anomaly at epoch: 244.4919°
orbit number at epoch: 4848

The dashed part of the orbit path shows where the satellite is in the earth's shadow,  

DLR